Temperature
22 23 22 21 21 21 21 20 20 20 19 19 20 20 20 20 20 19 19 19 19 19 19 19 18 18 18 19 19 19 19 20 19 19 19 19 19 19 18 18 17 18 19
23 24 23 21 21 21 21 20 20 20 20 20 20 20 21 20 20 20 20 19 19 19 19 19 19 19 19 19 19 20 20 20 20 20 20 19 19 19 18 18 17 17 18
23 24 23 22 21 21 21 20 20 20 20 20 20 20 20 20 20 20 20 20 19 19 19 19 19 19 20 20 20 20 20 20 20 20 19 19 19 19 19 18 18 18 18
24 24 23 22 21 21 20 20 20 20 20 20 20 20 20 20 20 20 20 20 20 20 20 20 20 20 20 20 20 20 20 20 20 19 19 18 18 19 19 19 19 18 18
23 24 24 23 22 21 21 20 20 20 20 20 20 20 20 20 20 20 20 20 20 20 20 20 20 20 20 20 20 20 20 20 20 20 19 18 18 19 19 19 19 19 18
22 24 24 23 22 21 21 21 20 20 20 20 20 20 20 20 20 20 20 20 20 20 19 19 19 19 19 20 20 20 20 20 20 20 19 19 19 19 19 19 19 19 19
22 23 24 23 22 22 21 21 21 20 20 20 20 20 20 20 20 20 20 20 20 20 19 19 19 19 19 19 19 19 19 19 19 19 19 19 19 19 19 19 19 19 19
23 22 23 23 22 22 21 21 21 21 20 20 20 20 20 20 20 20 20 20 20 19 19 19 19 19 19 19 19 19 19 19 19 19 19 19 19 19 19 19 18 18 18
23 22 24 23 23 23 22 22 21 21 21 20 20 20 20 20 20 20 20 20 20 19 19 19 19 19 19 18 18 19 19 19 19 19 18 18 18 18 18 18 18 18 18
24 22 23 23 23 22 22 22 21 21 20 20 20 20 20 20 20 20 20 20 19 19 19 19 19 19 19 19 18 18 19 19 19 19 18 18 18 18 18 18 18 18 18
24 22 22 21 22 22 22 21 21 21 20 20 20 20 20 20 20 19 19 19 19 19 19 19 19 19 19 19 19 18 18 18 19 19 19 19 19 18 18 18 18 18 18
24 23 22 22 21 21 20 20 20 20 20 20 20 20 20 19 19 18 18 19 19 19 19 19 19 19 19 19 19 18 18 18 18 18 19 19 19 19 18 18 18 18 18
23 23 23 23 21 21 21 20 20 19 19 19 19 19 19 19 19 19 18 18 18 19 19 19 18 18 18 18 18 18 18 18 18 18 19 19 19 19 18 18 18 18 18
24 23 23 22 22 21 21 21 20 20 19 19 19 19 19 18 19 19 18 18 18 18 18 18 18 18 18 18 18 18 18 18 18 18 18 18 18 18 18 18 18 18 18
24 23 23 22 21 21 21 21 20 20 20 19 19 19 19 19 19 19 18 18 18 18 18 18 18 18 18 18 18 18 18 18 18 18 18 18 18 18 18 18 18 18 18
24 23 23 22 21 21 21 20 20 20 20 19 19 19 19 19 18 18 18 18 19 18 18 18 19 19 18 18 18 18 18 18 18 18 18 18 18 18 18 18 18 18 18
24 23 22 21 21 21 20 20 20 20 20 20 19 19 19 18 18 18 18 18 18 18 18 18 18 18 18 18 18 18 18 18 18 19 18 18 18 18 18 18 19 19 19
24 23 22 21 21 20 20 20 20 20 19 19 19 19 18 18 18 17 17 17 17 17 17 17 17 18 18 18 18 18 17 17 18 18 18 18 18 18 18 18 18 19 19
23 23 22 21 21 20 20 20 20 20 20 19 19 19 18 17 17 17 17 17 17 17 17 17 17 17 17 17 17 17 17 17 17 17 17 17 17 18 18 18 18 18 19
23 22 21 21 20 20 20 20 20 20 20 20 19 19 18 18 17 17 17 17 16 16 16 16 16 16 16 16 16 17 17 17 17 17 18 18 18 18 18 18 17 17 18
23 22 21 21 20 20 20 20 20 20 20 20 20 19 18 18 17 17 16 16 16 16 16 16 16 16 16 16 16 16 17 17 18 18 18 18 18 18 18 18 17 17 17
22 21 21 21 20 21 21 21 21 21 20 20 20 19 19 17 17 17 16 16 15 15 15 15 15 15 15 15 15 15 16 17 18 19 19 19 19 18 18 17 17 17 17
22 21 21 21 21 21 21 21 21 20 20 20 19 19 19 18 17 17 16 16 15 15 15 15 15 15 14 14 15 15 15 16 17 18 18 19 18 18 18 17 17 17 17
21 21 21 20 21 21 21 21 20 20 20 20 20 20 19 18 18 17 17 16 16 16 16 15 14 15 14 14 14 14 15 15 15 16 17 18 18 18 18 17 17 17 17
20 20 20 19 19 20 20 20 20 20 20 20 20 19 19 19 18 17 17 16 16 16 15 15 15 15 15 14 14 14 14 15 15 15 16 16 17 17 18 18 18 17 17
18 18 18 17 17 18 18 18 18 18 19 19 19 19 19 18 18 18 17 16 16 16 15 15 15 14 14 14 14 14 14 14 14 15 15 16 16 17 17 18 18 17 17
Wind_Speed
18 19 21 16 15 16 18 17 17 16 15 14 12 11 10 9 9 9 9 9 9 9 10 9 9 10 10 10 9 8 8 8 8 8 9 10 9 9 8 7 5 11 13
21 20 20 17 16 16 17 17 17 16 15 14 13 11 10 9 9 8 8 8 8 9 10 9 8 9 9 9 8 7 6 5 4 4 5 8 8 7 6 4 4 11 11
22 20 20 17 16 16 16 17 17 16 15 14 13 11 10 9 8 7 7 8 7 7 7 7 7 7 7 7 6 6 5 3 1 2 5 8 11 9 7 6 9 11 9
21 20 19 18 16 16 16 16 16 16 15 14 12 12 11 10 8 7 6 7 6 6 6 6 6 6 6 6 5 4 2 2 3 6 9 9 11 13 11 7 7 8 8
20 19 21 20 17 16 16 15 15 14 14 13 12 12 11 10 9 8 7 6 6 5 5 5 4 5 5 6 5 4 2 1 4 9 13 6 12 15 13 10 8 7 7
19 19 21 20 18 17 16 16 15 14 13 12 11 11 10 10 9 8 8 7 6 6 5 5 5 5 6 6 6 6 5 5 7 11 15 5 14 15 13 11 9 8 8
19 19 20 19 17 16 15 15 15 14 14 13 12 11 10 10 9 9 8 8 8 7 7 7 7 7 8 8 8 8 8 8 10 13 12 5 14 17 14 11 9 9 10
19 19 19 19 17 16 15 15 14 14 14 13 13 12 11 11 10 10 10 9 9 9 8 8 8 8 8 9 10 10 11 12 12 13 14 7 19 20 16 14 11 9 9
20 19 17 18 17 17 17 17 16 16 15 15 14 14 13 13 12 12 13 13 12 12 12 11 11 11 11 11 11 12 14 15 13 13 13 9 20 22 20 18 16 13 12
19 19 17 16 16 15 15 15 15 14 14 14 14 14 13 13 13 15 15 16 16 15 14 14 14 14 14 14 15 15 16 15 15 16 15 12 23 23 21 20 18 17 16
15 18 17 18 16 16 17 18 17 15 15 14 14 15 14 14 15 17 20 20 19 18 17 17 17 17 16 17 19 20 18 14 16 16 14 12 23 23 21 20 19 19 18
12 15 13 17 16 15 14 16 15 15 15 16 15 17 16 15 14 14 15 22 21 19 19 20 20 18 17 14 16 21 15 17 17 12 8 16 24 24 22 21 20 20 19
14 12 12 13 15 13 8 11 10 11 12 16 17 15 14 12 10 10 7 11 14 16 15 16 18 16 14 11 9 10 15 15 13 11 10 20 23 24 23 22 22 21 21
16 14 13 10 10 7 7 7 6 6 5 7 12 16 11 4 4 5 3 6 8 9 8 8 6 11 11 10 8 7 7 9 9 9 9 19 21 22 22 22 22 22 21
17 15 13 9 7 5 2 2 5 5 4 5 3 8 7 4 4 5 2 2 5 6 2 2 2 3 4 4 6 6 6 7 8 9 7 15 20 22 22 21 21 22 21
14 14 12 11 9 7 5 3 0 1 0 3 2 1 3 4 4 4 5 4 4 4 3 2 5 5 6 6 6 6 6 8 8 10 12 14 20 23 23 22 21 21 22
14 13 12 11 11 8 6 6 5 5 6 4 2 3 4 4 4 4 5 5 5 5 5 4 5 5 6 6 7 8 8 8 9 10 13 13 13 21 25 25 23 22 23
16 14 12 12 13 10 7 6 6 5 4 4 4 6 5 4 4 3 4 4 3 4 3 5 6 6 6 6 7 7 8 8 11 10 11 11 12 13 20 26 24 23 23
12 14 10 7 11 10 9 7 6 3 3 3 4 3 3 1 3 3 4 4 4 4 5 6 5 5 6 6 7 7 7 8 9 11 10 10 11 12 12 17 24 24 23
10 12 8 6 7 9 9 5 2 4 5 4 3 4 3 3 1 1 3 3 2 3 4 3 4 5 6 7 10 10 7 8 8 8 10 10 9 12 14 13 14 19 24
9 11 8 7 5 4 4 5 4 4 2 3 4 6 3 3 2 0 4 4 5 5 5 6 6 7 7 7 7 8 9 11 11 10 10 10 10 9 12 12 12 13 14
9 7 7 7 7 6 5 4 3 3 1 1 2 5 5 4 2 3 3 3 5 5 6 6 6 6 7 7 7 9 8 8 8 9 9 9 9 7 8 9 10 10 12
9 7 5 6 7 5 8 5 4 3 3 4 4 5 6 4 2 1 2 4 5 6 5 6 6 8 6 6 6 6 6 6 7 6 6 4 3 4 6 7 9 11 14
8 6 7 2 5 4 5 5 6 5 4 3 3 3 4 4 4 3 3 4 4 4 6 7 6 5 6 7 7 7 8 10 10 9 8 6 5 5 6 6 8 9 12
17 17 17 14 9 5 3 5 3 3 4 4 3 4 5 5 6 6 6 4 4 5 7 6 7 7 5 7 7 7 9 10 10 8 9 7 5 5 6 8 7 7 7
16 16 15 14 16 17 15 12 9 8 8 8 6 5 4 5 6 8 7 5 4 5 5 6 7 8 7 7 7 7 8 8 9 8 9 8 7 7 8 7 8 7 6
Wind_Direction
123 128 126 120 117 120 127 135 137 132 132 133 131 127 122 115 107 102 98 91 94 114 121 114 97 98 94 85 91 83 72 68 65 70 86 89 89 89 92 100 127 112 112
125 128 126 123 121 123 130 136 139 137 138 138 136 134 128 121 113 107 103 100 96 96 101 103 95 90 95 94 91 94 87 79 78 96 127 130 119 106 95 75 39 117 124
125 130 130 129 128 128 131 137 142 144 145 144 142 138 132 128 126 121 113 108 106 105 104 104 104 99 97 99 103 109 111 109 156 209 209 187 145 132 115 93 104 121 128
130 139 140 138 137 135 135 140 145 149 150 150 147 143 143 143 142 138 128 122 120 119 118 119 121 122 121 119 121 122 114 140 247 258 246 224 159 143 135 127 130 140 142
135 140 139 146 145 144 143 145 150 153 155 155 154 153 157 158 157 157 157 153 149 147 145 145 149 150 149 146 147 152 164 228 265 268 267 246 147 145 144 147 155 161 163
136 139 146 152 153 154 154 156 158 160 161 163 164 167 170 171 171 173 177 178 178 178 178 183 193 195 187 180 180 188 197 221 251 255 257 220 133 148 152 159 171 178 185
144 139 149 154 158 162 165 166 167 168 169 171 174 180 184 185 187 191 196 199 200 201 203 208 215 214 211 208 206 210 217 230 248 268 275 216 143 152 162 172 189 193 192
139 135 146 154 162 169 173 175 176 177 179 182 185 190 196 200 203 209 213 215 218 219 221 223 229 229 220 219 219 221 227 238 243 247 259 233 154 161 170 182 198 209 204
140 138 151 161 169 176 180 182 183 186 189 193 198 202 206 210 215 219 222 224 226 225 224 225 227 230 231 232 233 230 230 232 250 262 257 233 169 173 179 187 197 208 217
140 145 156 165 168 177 184 189 191 195 199 204 209 214 219 223 226 230 231 228 230 228 227 228 228 229 230 233 235 233 232 232 239 251 250 231 180 181 186 192 198 205 215
147 149 165 169 168 180 185 185 189 197 205 209 215 220 223 229 230 228 229 228 225 227 228 229 230 231 234 238 237 233 230 231 237 240 240 205 179 184 191 196 202 210 216
165 162 168 167 169 187 191 170 185 195 199 208 216 210 213 228 243 253 227 222 225 229 229 229 231 232 234 242 240 233 228 229 243 245 223 177 180 185 191 197 204 213 219
177 179 168 173 170 189 187 163 184 197 193 200 220 212 207 223 240 266 253 218 223 231 233 234 231 232 234 227 242 234 216 226 232 238 214 180 183 188 192 199 206 215 221
175 180 179 182 165 186 176 176 174 190 186 200 206 210 214 214 233 250 251 223 218 230 235 258 232 221 228 231 239 258 245 231 234 230 217 186 190 194 198 204 210 217 224
168 177 178 155 149 150 151 184 183 197 214 222 201 183 210 216 241 269 282 279 274 273 232 196 264 270 266 271 268 273 284 288 298 295 271 205 201 204 208 213 217 222 224
166 171 157 152 150 152 159 182 75 235 246 300 334 190 195 201 221 248 266 265 260 279 291 256 248 245 247 249 257 267 277 279 270 259 253 243 218 210 211 214 218 225 225
168 159 147 161 154 160 172 192 195 207 205 211 232 256 231 222 230 241 254 261 267 272 265 254 248 250 258 261 253 245 248 252 255 255 248 241 234 220 214 214 215 221 225
165 154 157 172 155 165 182 206 223 209 167 173 179 204 208 209 219 236 253 253 247 246 237 245 247 252 256 261 260 248 240 238 243 245 247 242 240 242 224 217 216 217 223
155 142 148 142 154 171 184 199 223 128 132 204 197 172 121 246 231 220 237 228 224 224 223 236 228 236 258 264 268 261 247 242 244 246 243 238 229 227 237 217 214 218 221
118 123 139 168 187 173 172 177 203 171 184 191 143 107 85 294 260 50 302 294 287 286 271 261 272 250 252 262 272 274 268 261 252 244 246 242 226 222 225 225 218 223 223
112 122 153 180 162 164 156 167 179 167 170 154 148 126 155 242 288 62 284 334 322 299 323 327 311 300 292 281 278 277 261 254 248 237 235 237 229 216 217 215 220 224 222
112 118 130 131 157 186 129 104 95 67 296 159 108 154 189 226 250 285 340 338 313 327 306 280 279 279 287 293 295 297 291 278 258 249 237 227 228 224 216 205 209 217 219
125 142 151 144 166 185 144 162 148 162 233 222 207 198 192 194 214 292 338 312 313 305 301 326 307 287 288 292 286 286 297 295 308 305 321 302 239 227 227 221 209 213 218
60 67 66 83 191 176 176 218 188 190 217 222 197 200 151 179 213 204 229 261 276 291 298 288 292 321 308 295 286 278 277 285 291 292 290 280 255 237 230 236 229 213 207
41 44 40 12 354 343 279 289 299 253 249 245 208 188 172 212 213 206 205 213 249 267 272 289 307 295 288 288 292 298 300 298 288 279 281 279 276 249 227 220 224 217 201
37 41 45 30 22 14 6 356 343 321 316 315 312 290 226 221 204 199 189 188 230 262 288 301 294 290 281 279 281 282 283 286 288 285 279 272 269 266 238 215 210 212 200
Height
1504 1506 1509 1511 1513 1516 1518 1521 1523 1525 1527 1529 1531 1532 1534 1535 1537 1538 1539 1540 1542 1543 1544 1545 1546 1547 1548 1549 1550 1551 1552 1552 1553 1554 1555 1555 1555 1556 1556 1557 1557 1558 1559
1503 1507 1510 1512 1515 1517 1520 1522 1525 1527 1529 1531 1533 1534 1536 1537 1538 1540 1541 1542 1543 1545 1546 1547 1547 1548 1549 1550 1550 1551 1553 1553 1554 1555 1556 1557 1557 1557 1558 1558 1559 1560 1561
1503 1508 1511 1514 1516 1519 1522 1524 1526 1528 1530 1532 1534 1536 1537 1538 1540 1541 1542 1544 1545 1546 1547 1547 1548 1549 1550 1550 1551 1552 1553 1554 1555 1556 1557 1557 1559 1559 1559 1560 1561 1562 1563
1504 1508 1511 1514 1517 1520 1523 1525 1527 1529 1531 1533 1535 1536 1538 1539 1541 1542 1544 1545 1546 1547 1548 1548 1549 1549 1550 1551 1551 1552 1553 1554 1556 1557 1557 1558 1559 1561 1561 1561 1562 1563 1564
1505 1508 1512 1514 1518 1521 1524 1526 1528 1530 1532 1534 1535 1537 1538 1540 1541 1542 1544 1545 1546 1547 1548 1549 1549 1550 1550 1551 1551 1552 1553 1554 1555 1557 1557 1559 1560 1561 1562 1563 1563 1564 1565
1507 1509 1512 1515 1518 1521 1523 1526 1528 1530 1532 1534 1536 1538 1539 1540 1541 1542 1543 1544 1545 1546 1547 1548 1549 1549 1550 1550 1551 1552 1553 1554 1555 1556 1557 1560 1560 1561 1562 1563 1563 1564 1565
1509 1510 1513 1515 1518 1520 1523 1525 1528 1530 1532 1534 1536 1538 1539 1540 1541 1542 1543 1543 1544 1544 1545 1546 1547 1548 1549 1549 1550 1551 1551 1552 1554 1555 1557 1559 1559 1560 1561 1562 1563 1564 1565
1510 1510 1514 1516 1518 1520 1522 1525 1527 1530 1532 1534 1535 1537 1538 1539 1540 1540 1541 1542 1542 1543 1543 1544 1545 1546 1546 1547 1548 1549 1550 1551 1551 1553 1554 1556 1556 1557 1559 1560 1561 1562 1563
1511 1510 1513 1515 1517 1519 1521 1524 1526 1529 1531 1533 1534 1535 1536 1537 1538 1539 1539 1540 1540 1541 1541 1542 1543 1544 1544 1545 1545 1546 1547 1548 1549 1550 1552 1553 1554 1554 1556 1557 1558 1559 1561
1510 1510 1513 1515 1517 1519 1521 1523 1525 1527 1529 1531 1532 1533 1534 1535 1536 1537 1537 1538 1538 1539 1539 1540 1540 1541 1542 1543 1543 1544 1544 1545 1546 1547 1548 1550 1551 1552 1553 1554 1555 1556 1557
1511 1510 1512 1514 1515 1518 1520 1522 1524 1526 1528 1529 1531 1532 1533 1533 1534 1534 1535 1535 1536 1536 1537 1537 1538 1539 1539 1540 1540 1541 1541 1541 1542 1543 1545 1546 1547 1548 1549 1550 1551 1552 1553
1509 1511 1512 1514 1514 1517 1520 1520 1523 1524 1525 1527 1528 1529 1530 1530 1531 1533 1533 1532 1533 1534 1534 1534 1535 1536 1536 1536 1537 1537 1538 1538 1539 1541 1542 1543 1543 1543 1545 1546 1547 1548 1549
1507 1510 1511 1514 1514 1516 1519 1520 1521 1522 1524 1525 1526 1527 1527 1528 1529 1530 1530 1530 1530 1531 1531 1531 1531 1532 1532 1532 1533 1534 1534 1535 1535 1537 1538 1538 1539 1540 1540 1541 1542 1543 1544
1504 1507 1509 1512 1513 1516 1518 1520 1520 1521 1523 1523 1524 1524 1525 1525 1526 1527 1528 1528 1528 1529 1529 1529 1528 1528 1528 1529 1530 1531 1532 1532 1533 1533 1534 1534 1535 1536 1536 1537 1538 1539 1540
1500 1504 1507 1509 1511 1512 1514 1517 1518 1519 1521 1522 1523 1522 1521 1521 1522 1523 1524 1524 1525 1526 1526 1525 1525 1525 1525 1525 1526 1526 1527 1528 1529 1529 1530 1530 1530 1531 1531 1533 1533 1535 1536
1497 1500 1503 1505 1507 1509 1511 1513 1514 1515 1516 1518 1519 1519 1519 1519 1519 1519 1520 1520 1521 1522 1522 1521 1520 1521 1521 1520 1520 1520 1520 1521 1522 1523 1524 1524 1524 1525 1525 1527 1528 1529 1531
1493 1496 1499 1502 1504 1506 1508 1510 1512 1513 1513 1514 1515 1516 1516 1516 1515 1516 1516 1516 1516 1517 1517 1516 1516 1516 1515 1515 1514 1514 1514 1514 1515 1515 1516 1517 1518 1519 1520 1521 1522 1523 1525
1486 1490 1495 1499 1500 1503 1506 1507 1510 1511 1511 1512 1512 1512 1512 1513 1513 1513 1513 1512 1512 1512 1512 1512 1511 1511 1511 1510 1510 1509 1508 1508 1508 1508 1509 1509 1510 1512 1514 1515 1516 1517 1519
1475 1480 1490 1496 1497 1499 1502 1505 1507 1509 1509 1510 1511 1511 1510 1511 1511 1511 1510 1510 1510 1509 1509 1509 1508 1508 1507 1507 1506 1505 1505 1504 1503 1503 1503 1503 1504 1505 1507 1509 1510 1511 1513
1476 1480 1488 1493 1496 1498 1501 1503 1505 1507 1508 1509 1510 1509 1509 1509 1510 1509 1509 1509 1508 1508 1508 1507 1506 1505 1504 1503 1502 1501 1500 1500 1499 1499 1498 1498 1498 1499 1500 1501 1503 1504 1506
1480 1484 1488 1493 1495 1497 1500 1501 1503 1505 1507 1509 1509 1507 1507 1508 1508 1507 1506 1506 1505 1505 1504 1503 1503 1501 1500 1500 1498 1496 1494 1494 1493 1493 1492 1492 1492 1493 1494 1494 1496 1498 1500
1483 1486 1489 1493 1496 1496 1497 1499 1500 1503 1505 1506 1506 1505 1505 1505 1505 1505 1504 1502 1502 1501 1500 1500 1499 1497 1496 1497 1495 1493 1490 1490 1488 1488 1487 1486 1487 1488 1488 1488 1490 1491 1493
1485 1486 1489 1494 1496 1496 1496 1497 1498 1501 1502 1503 1503 1502 1502 1502 1502 1502 1500 1499 1498 1497 1496 1495 1494 1493 1492 1492 1492 1491 1488 1484 1484 1484 1483 1482 1482 1482 1483 1484 1484 1486 1487
1486 1487 1489 1492 1495 1495 1495 1496 1496 1497 1499 1500 1500 1500 1500 1499 1499 1498 1497 1495 1494 1493 1492 1491 1491 1490 1488 1487 1487 1487 1486 1484 1482 1479 1479 1479 1478 1478 1477 1478 1479 1481 1482
1484 1485 1485 1489 1493 1495 1495 1495 1495 1495 1496 1497 1497 1496 1496 1496 1495 1494 1493 1491 1491 1490 1489 1488 1486 1485 1484 1482 1482 1481 1480 1479 1478 1477 1475 1474 1474 1474 1473 1473 1474 1475 1477
1485 1484 1484 1487 1489 1490 1490 1490 1491 1491 1492 1492 1493 1493 1492 1492 1491 1490 1489 1488 1487 1486 1485 1484 1483 1482 1480 1479 1478 1477 1476 1475 1474 1473 1471 1470 1469 1469 1469 1469 1469 1470 1472